{"data":{"norad_id":63400,"epoch":"2026-09-19T21:06:54.769248Z","epoch_age_seconds":212455,"freshness":"STALE","line1":"1 63400U 25065B   26262.87980057  .00016595  00000+0  61100-3 0  9999","line2":"2 63400  42.9971  89.9776 0001641 269.9105  90.1559 15.27591828 82543","mean_motion":15.27591828,"eccentricity":0.0001641,"inclination_deg":42.9971,"raan_deg":89.9776,"arg_perigee_deg":269.9105,"mean_anomaly_deg":90.1559,"bstar":0.000611,"rev_number":8254,"period_min":94.266018815073,"perigee_km":481.88776415466,"apogee_km":484.1395938075,"semimajor_km":6861.1506789811,"source":"CELESTRAK","updated_at":"2026-09-21T09:00:34.977899Z"}}